Gulfport, MS

3:41 AM CDT on October 01, 2016 (GMT -0500)
Gulfport-Biloxi Regional

Weather History for KGPT - January, 2013

Change the Weather History Date:

Sunday, January 6, 2013

  Actual Average Record
Temperature  
Mean Temperature 48 °F -  
Max Temperature 51 °F 62 °F 74 °F (1956)
Min Temperature 44 °F 42 °F 22 °F (1969)
Degree Days  
Heating Degree Days 18    
Moisture  
Dew Point 42 °F    
Average Humidity 82    
Maximum Humidity 93    
Minimum Humidity 56    
Precipitation  
Precipitation 0.15 in - - ()
Sea Level Pressure  
Sea Level Pressure 30.23 in    
Wind  
Wind Speed 7 mph (NNE)    
Max Wind Speed 15 mph    
Max Gust Speed 30 mph    
Visibility 9 miles    
Events Rain    
Averages and records for this station are not official NWS values.
T = Trace of Precipitation, MM = Missing Value Source: NWS Daily Summary

Daily Weather History Graph

Daily Weather History Graph

Search for Another Location

Airport or City:

Trip Planner

Search our weather history database for the weather conditions in past years. The results will help you decide how hot, cold, wet, or windy it might be!

Date:

Astronomy

Jan. 06, 2013 Rise Set
Actual Time 6:54 AM CST 5:10 PM CST
Civil Twilight 6:27 AM CST 5:37 PM CST
Nautical Twilight 5:57 AM CST 6:06 PM CST
Astronomical Twilight 5:28 AM CST 6:36 PM CST
Moon 1:17 AM CST (1/6) 12:30 PM CST (1/6)
Length of Visible Light 11h 09m
Length of Day
10h 16m
Waning Crescent, 33% of the Moon is Illuminated
Jan 6
Waning Crescent
Jan 11
New
Jan 18
First Quarter
Jan 26
Full
Feb 3
Last Quarter

Hourly Weather History & Observations

Time (CST) Temp. Windchill Dew Point Humidity Pressure Visibility Wind Dir Wind Speed Gust Speed Precip Events Conditions
12:53 AM 51.1 °F - 36.0 °F 56% 30.22 in 10.0 mi NE 4.6 mph - N/A   Overcast
1:53 AM 50.0 °F - 37.0 °F 61% 30.21 in 10.0 mi NE 5.8 mph - N/A   Overcast
2:04 AM 50.0 °F - 37.4 °F 62% 30.21 in 10.0 mi NE 6.9 mph - N/A   Overcast
2:53 AM 50.0 °F - 37.0 °F 61% 30.20 in 10.0 mi NNE 5.8 mph - N/A   Overcast
3:08 AM 50.0 °F - 37.4 °F 62% 30.19 in 10.0 mi NE 8.1 mph - N/A   Overcast
3:53 AM 48.9 °F - 39.9 °F 71% 30.18 in 10.0 mi NNE 5.8 mph - 0.00 in   Overcast
4:53 AM 46.9 °F - 42.1 °F 83% 30.19 in 10.0 mi NNE 5.8 mph - 0.00 in   Overcast
5:53 AM 46.9 °F - 43.0 °F 86% 30.20 in 10.0 mi NNE 8.1 mph - N/A   Overcast
6:07 AM 46.4 °F 41.1 °F 42.8 °F 87% 30.21 in 10.0 mi NNE 11.5 mph - N/A   Overcast
6:31 AM 46.4 °F 40.1 °F 42.8 °F 87% 30.22 in 8.0 mi North 15.0 mph 20.7 mph N/A   Overcast
6:53 AM 45.0 °F 39.3 °F 43.0 °F 93% 30.23 in 5.0 mi NNE 11.5 mph - N/A   Overcast
7:53 AM 45.0 °F 39.3 °F 42.1 °F 90% 30.25 in 7.0 mi North 11.5 mph 29.9 mph 0.00 in Rain Light Rain
8:40 AM 44.6 °F 40.2 °F 42.8 °F 93% 30.26 in 5.0 mi NE 8.1 mph - 0.07 in Rain Light Rain
8:53 AM 45.0 °F 39.7 °F 43.0 °F 93% 30.25 in 4.0 mi NE 10.4 mph - 0.09 in Rain Light Rain
9:01 AM 44.6 °F 39.2 °F 42.8 °F 93% 30.27 in 3.0 mi North 10.4 mph - 0.01 in Rain Light Rain
9:53 AM 46.0 °F 41.0 °F 43.0 °F 89% 30.26 in 8.0 mi NNE 10.4 mph - 0.05 in Rain Light Rain
10:53 AM 46.9 °F - 44.1 °F 90% 30.26 in 10.0 mi NNE 8.1 mph - 0.01 in Rain Light Rain
11:42 AM 48.2 °F - 44.6 °F 87% 30.25 in 10.0 mi North 9.2 mph - 0.00 in   Overcast
11:53 AM 48.0 °F - 45.0 °F 89% 30.24 in 10.0 mi North 8.1 mph - 0.00 in   Overcast
12:53 PM 48.9 °F - 46.0 °F 90% 30.21 in 10.0 mi NNE 9.2 mph - 0.00 in Rain Light Rain
1:53 PM 50.0 °F - 46.0 °F 86% 30.20 in 10.0 mi NNE 9.2 mph - 0.00 in   Overcast
2:53 PM 51.1 °F - 46.0 °F 83% 30.21 in 10.0 mi North 5.8 mph - 0.00 in   Overcast
3:53 PM 51.1 °F - 46.0 °F 83% 30.21 in 10.0 mi North 9.2 mph - N/A   Overcast
4:53 PM 51.1 °F - 46.0 °F 83% 30.21 in 10.0 mi North 5.8 mph - N/A   Overcast
5:53 PM 50.0 °F - 45.0 °F 83% 30.24 in 10.0 mi North 6.9 mph - N/A   Overcast
6:53 PM 50.0 °F - 45.0 °F 83% 30.26 in 10.0 mi North 8.1 mph - N/A   Overcast
7:53 PM 48.0 °F - 43.0 °F 83% 30.27 in 10.0 mi North 6.9 mph - N/A   Clear
8:53 PM 46.0 °F 43.9 °F 42.1 °F 86% 30.28 in 10.0 mi North 4.6 mph - N/A   Clear
9:53 PM 45.0 °F 42.6 °F 41.0 °F 86% 30.29 in 10.0 mi NNE 4.6 mph - N/A   Clear
10:53 PM 45.0 °F 42.6 °F 41.0 °F 86% 30.30 in 10.0 mi North 4.6 mph - N/A   Clear
11:53 PM 44.1 °F 40.8 °F 39.9 °F 85% 30.30 in 10.0 mi North 5.8 mph - N/A   Clear